,,PA_Meas_PMT16A,,PR_Meas_QMR101_102,,RH_Meas_QMH101,,SR_Meas_QMS101,,TA_Meas_QMH101,,GenWind,,GenWind,
time,status,PA,status,PR,status,RH,status,SR,status,TA,status,DirAvg,status,SpdAvg,
2011-11-05, 00:00:04,VALID,917.816,VALID,0.2,VALID,97.7322,VALID,0,VALID,19.1193,VALID,17,VALID,1.59375,
2011-11-05, 00:01:04,VALID,917.792,VALID,0,VALID,97.7627,VALID,0,VALID,19.0983,VALID,17,VALID,0.916406,
2011-11-05, 00:02:04,VALID,917.76,VALID,0,VALID,97.7398,VALID,0,VALID,19.0983,VALID,344,VALID,1.04727,
2011-11-05, 00:03:04,VALID,917.753,VALID,0,VALID,97.7551,VALID,0,VALID,19.0788,VALID,14,VALID,1.5043,
2011-11-05, 00:04:04,VALID,917.731,VALID,0,VALID,97.7322,VALID,0,VALID,19.0608,VALID,10,VALID,1.59961,
2011-11-05, 00:05:04,VALID,917.712,VALID,0,VALID,97.7474,VALID,0,VALID,19.0203,VALID,5,VALID,1.76367,
2011-11-05, 00:06:04,VALID,917.681,VALID,0,VALID,97.7398,VALID,0,VALID,19.0398,VALID,351,VALID,1.12344,
2011-11-05, 00:07:04,VALID,917.682,VALID,0,VALID,97.7474,VALID,0,VALID,19.0203,VALID,8,VALID,1.65156,
2011-11-05, 00:08:04,VALID,917.688,VALID,0,VALID,97.7627,VALID,0,VALID,19.0608,VALID,6,VALID,0.762891,
2011-11-05, 00:09:04,VALID,917.672,VALID,0,VALID,97.7627,VALID,0,VALID,19.0203,VALID,20,VALID,1.19336,
2011-11-05, 00:10:04,VALID,917.625,VALID,0,VALID,97.7474,VALID,0,VALID,19.0608,VALID,22,VALID,0.90625,
2011-11-05, 00:11:04,VALID,917.656,VALID,0,VALID,97.7551,VALID,0,VALID,19.0203,VALID,326,VALID,1.03711,
2011-11-05, 00:12:04,VALID,917.638,VALID,0,VALID,97.7703,VALID,0,VALID,19.0218,VALID,334,VALID,0.802734,
2011-11-05, 00:13:04,VALID,917.641,VALID,0,VALID,97.7551,VALID,0,VALID,19.0023,VALID,337,VALID,0.799609,
2011-11-05, 00:14:04,VALID,917.638,VALID,0,VALID,97.7779,VALID,0,VALID,18.9814,VALID,337,VALID,0.423828,
2011-11-05, 00:15:04,VALID,917.618,VALID,0,VALID,97.7627,VALID,0,VALID,19.0008,VALID,337,VALID,0.201562,
2011-11-05, 00:16:04,VALID,917.589,VALID,0,VALID,97.7627,VALID,0,VALID,19.0008,VALID,337,VALID,0,
2011-11-05, 00:17:04,VALID,917.598,VALID,0,VALID,97.8008,VALID,0,VALID,19.0203,VALID,337,VALID,0,
2011-11-05, 00:18:04,VALID,917.582,VALID,0,VALID,97.8084,VALID,0,VALID,19.0203,VALID,337,VALID,0,
2011-11-05, 00:19:04,VALID,917.57,VALID,0,VALID,97.7856,VALID,0,VALID,19.0398,VALID,337,VALID,0.187891,
2011-11-05, 00:20:04,VALID,917.521,VALID,0,VALID,97.8008,VALID,0,VALID,19.0608,VALID,337,VALID,0.636719,
2011-11-05, 00:21:04,VALID,917.499,VALID,0,VALID,97.7779,VALID,0,VALID,19.0398,VALID,16,VALID,1.275,
2011-11-05, 00:22:04,VALID,917.473,VALID,0,VALID,97.7856,VALID,0,VALID,19.0398,VALID,15,VALID,1.58281,
2011-11-05, 00:23:04,VALID,917.413,VALID,0,VALID,97.7932,VALID,0,VALID,19.0608,VALID,15,VALID,1.34141,
2011-11-05, 00:24:04,VALID,917.407,VALID,0,VALID,97.7856,VALID,0,VALID,19.0398,VALID,15,VALID,1.15625,
2011-11-05, 00:25:04,VALID,917.403,VALID,0,VALID,97.8008,VALID,0,VALID,19.0398,VALID,15,VALID,0.957422,
2011-11-05, 00:26:04,VALID,917.359,VALID,0,VALID,97.7932,VALID,0,VALID,19.0203,VALID,340,VALID,0.565234,
2011-11-05, 00:27:04,VALID,917.392,VALID,0,VALID,97.7932,VALID,0,VALID,19.0203,VALID,340,VALID,0.737891,
2011-11-05, 00:28:04,VALID,917.374,VALID,0,VALID,97.7932,VALID,0,VALID,19.0008,VALID,341,VALID,0.739062,
2011-11-05, 00:29:04,VALID,917.347,VALID,0,VALID,97.8008,VALID,0,VALID,19.0218,VALID,341,VALID,0.525781,
2011-11-05, 00:30:04,VALID,917.307,VALID,0,VALID,97.816,VALID,0,VALID,19.0203,VALID,341,VALID,0.869141,
2011-11-05, 00:31:04,VALID,917.337,VALID,0,VALID,97.8237,VALID,0,VALID,19.0413,VALID,341,VALID,0.755078,
2011-11-05, 00:32:04,VALID,917.301,VALID,0.2,VALID,97.8008,VALID,0,VALID,19.0203,VALID,341,VALID,0.690234,
2011-11-05, 00:33:04,VALID,917.292,VALID,0,VALID,97.8237,VALID,0,VALID,19.0608,VALID,342,VALID,0.622266,
2011-11-05, 00:34:04,VALID,917.324,VALID,0,VALID,97.8237,VALID,0,VALID,19.0803,VALID,342,VALID,0.398828,
2011-11-05, 00:35:04,VALID,917.291,VALID,0,VALID,97.8465,VALID,0,VALID,19.0803,VALID,342,VALID,0,
2011-11-05, 00:36:04,VALID,917.295,VALID,0,VALID,97.8084,VALID,0,VALID,19.0593,VALID,342,VALID,0,
2011-11-05, 00:37:04,VALID,917.298,VALID,0,VALID,97.8237,VALID,0,VALID,19.0803,VALID,342,VALID,0,
2011-11-05, 00:38:04,VALID,917.283,VALID,0,VALID,97.8084,VALID,0,VALID,19.0788,VALID,358,VALID,0.885547,
2011-11-05, 00:39:04,VALID,917.272,VALID,0,VALID,97.8313,VALID,0,VALID,19.0788,VALID,33,VALID,0.740625,
2011-11-05, 00:40:04,VALID,917.275,VALID,0,VALID,97.816,VALID,0,VALID,19.0998,VALID,33,VALID,0.648438,
2011-11-05, 00:41:04,VALID,917.271,VALID,0,VALID,97.8542,VALID,0,VALID,19.0788,VALID,23,VALID,0.983594,
2011-11-05, 00:42:04,VALID,917.241,VALID,0,VALID,97.8237,VALID,0,VALID,19.0983,VALID,23,VALID,1.07656,
2011-11-05, 00:43:04,VALID,917.213,VALID,0,VALID,97.8313,VALID,0,VALID,19.1193,VALID,23,VALID,1.17383,
2011-11-05, 00:44:04,VALID,917.221,VALID,0,VALID,97.816,VALID,0,VALID,19.1178,VALID,23,VALID,0.692578,
2011-11-05, 00:45:04,VALID,917.206,VALID,0,VALID,97.8389,VALID,0,VALID,19.0983,VALID,23,VALID,0.945313,
2011-11-05, 00:46:04,VALID,917.172,VALID,0.2,VALID,97.8313,VALID,0,VALID,19.0998,VALID,23,VALID,1.10938,
2011-11-05, 00:47:04,VALID,917.179,VALID,0,VALID,97.8237,VALID,0,VALID,19.1193,VALID,23,VALID,1.10742,
2011-11-05, 00:48:04,VALID,917.158,VALID,0,VALID,97.8389,VALID,0,VALID,19.1193,VALID,23,VALID,0.872266,
2011-11-05, 00:49:04,VALID,917.151,VALID,0,VALID,97.8313,VALID,0,VALID,19.1373,VALID,23,VALID,0,
2011-11-05, 00:50:04,VALID,917.133,VALID,0,VALID,97.8313,VALID,0,VALID,19.1388,VALID,23,VALID,0.0171875,
2011-11-05, 00:51:04,VALID,917.114,VALID,0,VALID,97.8313,VALID,0,VALID,19.1373,VALID,23,VALID,0,
2011-11-05, 00:52:04,VALID,917.107,VALID,0.2,VALID,97.8313,VALID,0,VALID,19.1178,VALID,23,VALID,0.0917969,
2011-11-05, 00:53:04,VALID,917.078,VALID,0,VALID,97.8465,VALID,0,VALID,19.1178,VALID,23,VALID,1.01992,
2011-11-05, 00:54:04,VALID,917.067,VALID,0,VALID,97.8465,VALID,0,VALID,19.0983,VALID,23,VALID,1.12031,
2011-11-05, 00:55:04,VALID,917.051,VALID,0,VALID,97.8618,VALID,0,VALID,19.0983,VALID,23,VALID,0.846094,
2011-11-05, 00:56:04,VALID,917.068,VALID,0,VALID,97.8465,VALID,0,VALID,19.0983,VALID,23,VALID,1.01055,
2011-11-05, 00:57:04,VALID,917.075,VALID,0.2,VALID,97.8389,VALID,0,VALID,19.0788,VALID,23,VALID,0.889063,
2011-11-05, 00:58:04,VALID,917.035,VALID,0,VALID,97.8465,VALID,0,VALID,19.0788,VALID,14,VALID,1.17148,
2011-11-05, 00:59:04,VALID,917.029,VALID,0,VALID,97.8542,VALID,0,VALID,19.0788,VALID,14,VALID,0.954687,
2011-11-05, 01:00:04,VALID,917.036,VALID,0,VALID,97.8389,VALID,0,VALID,19.0788,VALID,14,VALID,0.568359,
2011-11-05, 01:01:04,VALID,917.04,VALID,0,VALID,97.8542,VALID,0,VALID,19.1193,VALID,14,VALID,0.891797,
2011-11-05, 01:02:04,VALID,917.011,VALID,0.2,VALID,97.8313,VALID,0,VALID,19.0593,VALID,345,VALID,0.861719,
2011-11-05, 01:03:04,VALID,917.026,VALID,0,VALID,97.8694,VALID,0,VALID,19.0608,VALID,23,VALID,0.931641,
2011-11-05, 01:04:04,VALID,916.969,VALID,0,VALID,97.8465,VALID,0,VALID,19.0398,VALID,10,VALID,0.924219,
2011-11-05, 01:05:04,VALID,916.984,VALID,0,VALID,97.8542,VALID,0,VALID,19.0398,VALID,10,VALID,0.627344,
2011-11-05, 01:06:04,VALID,916.964,VALID,0.2,VALID,97.8618,VALID,0,VALID,19.0593,VALID,10,VALID,0.727734,
2011-11-05, 01:07:04,VALID,916.957,VALID,0,VALID,97.877,VALID,0,VALID,19.0608,VALID,10,VALID,1.12656,
2011-11-05, 01:08:04,VALID,916.976,VALID,0,VALID,97.877,VALID,0,VALID,19.0413,VALID,2,VALID,0.496094,
2011-11-05, 01:09:04,VALID,916.999,VALID,0,VALID,97.8694,VALID,0,VALID,19.0413,VALID,296,VALID,0.481641,
2011-11-05, 01:10:04,VALID,916.97,VALID,0,VALID,97.8618,VALID,0,VALID,19.0008,VALID,296,VALID,0.256641,
2011-11-05, 01:11:04,VALID,916.97,VALID,0,VALID,97.8694,VALID,0,VALID,19.0218,VALID,296,VALID,0.400391,
2011-11-05, 01:12:04,VALID,916.981,VALID,0.2,VALID,97.8618,VALID,0,VALID,19.0008,VALID,348,VALID,0.740625,
2011-11-05, 01:13:04,VALID,916.957,VALID,0,VALID,97.8694,VALID,0,VALID,19.0023,VALID,263,VALID,1.125,
2011-11-05, 01:14:04,VALID,916.94,VALID,0,VALID,97.877,VALID,0,VALID,19.0218,VALID,43,VALID,1.09375,
2011-11-05, 01:15:04,VALID,916.946,VALID,0,VALID,97.8923,VALID,0,VALID,19.0608,VALID,22,VALID,0.855859,
2011-11-05, 01:16:04,VALID,916.949,VALID,0.2,VALID,97.877,VALID,0,VALID,19.0398,VALID,22,VALID,1.36523,
2011-11-05, 01:17:04,VALID,916.939,VALID,0,VALID,97.8847,VALID,0,VALID,19.0608,VALID,36,VALID,1.29766,
2011-11-05, 01:18:04,VALID,916.928,VALID,0,VALID,97.8923,VALID,0,VALID,19.0398,VALID,21,VALID,1.29609,
2011-11-05, 01:19:04,VALID,916.895,VALID,0.2,VALID,97.877,VALID,0,VALID,19.0398,VALID,20,VALID,0.905078,
2011-11-05, 01:20:04,VALID,916.889,VALID,0.2,VALID,97.8847,VALID,0,VALID,19.0608,VALID,23,VALID,1.39766,
2011-11-05, 01:21:04,VALID,916.888,VALID,0,VALID,97.8618,VALID,0,VALID,19.0593,VALID,24,VALID,1.34727,
2011-11-05, 01:22:04,VALID,916.844,VALID,0,VALID,97.8999,VALID,0,VALID,19.0608,VALID,20,VALID,1.16719,
2011-11-05, 01:23:04,VALID,916.854,VALID,0.2,VALID,97.8999,VALID,0,VALID,19.0203,VALID,8,VALID,1.23867,
2011-11-05, 01:24:04,VALID,916.835,VALID,0,VALID,97.8923,VALID,0,VALID,19.0203,VALID,39,VALID,1.0082,
2011-11-05, 01:25:04,VALID,916.841,VALID,0.2,VALID,97.8694,VALID,0,VALID,19.0008,VALID,10,VALID,1.49609,
2011-11-05, 01:26:04,VALID,916.82,VALID,0,VALID,97.9152,VALID,0,VALID,19.0218,VALID,24,VALID,1.36719,
2011-11-05, 01:27:04,VALID,916.813,VALID,0.2,VALID,97.8694,VALID,0,VALID,18.9814,VALID,37,VALID,1.58438,
2011-11-05, 01:28:04,VALID,916.811,VALID,0,VALID,97.8847,VALID,0,VALID,19.0008,VALID,28,VALID,1.13633,
2011-11-05, 01:29:04,VALID,916.794,VALID,0,VALID,97.8999,VALID,0,VALID,18.9814,VALID,357,VALID,1.06367,
2011-11-05, 01:30:04,VALID,916.775,VALID,0,VALID,97.8847,VALID,0,VALID,18.9814,VALID,33,VALID,1.13047,
2011-11-05, 01:31:04,VALID,916.781,VALID,0.2,VALID,97.8999,VALID,0,VALID,18.9814,VALID,9,VALID,1.04258,
2011-11-05, 01:32:04,VALID,916.762,VALID,0,VALID,97.8847,VALID,0,VALID,18.9814,VALID,31,VALID,1.18242,
2011-11-05, 01:33:04,VALID,916.778,VALID,0,VALID,97.9075,VALID,0,VALID,18.9619,VALID,27,VALID,1.31523,
2011-11-05, 01:34:04,VALID,916.759,VALID,0.2,VALID,97.8999,VALID,0,VALID,19.0008,VALID,25,VALID,1.21992,
2011-11-05, 01:35:04,VALID,916.735,VALID,0,VALID,97.8999,VALID,0,VALID,18.9828,VALID,25,VALID,0.984766,
2011-11-05, 01:36:04,VALID,916.732,VALID,0,VALID,97.8923,VALID,0,VALID,19.0023,VALID,25,VALID,0.717578,
2011-11-05, 01:37:04,VALID,916.728,VALID,0.2,VALID,97.8999,VALID,0,VALID,18.9814,VALID,4,VALID,1.30313,
2011-11-05, 01:38:04,VALID,916.698,VALID,0,VALID,97.8923,VALID,0,VALID,19.0023,VALID,11,VALID,0.828906,
2011-11-05, 01:39:04,VALID,916.719,VALID,0,VALID,97.9075,VALID,0,VALID,18.9814,VALID,19,VALID,0.222656,
2011-11-05, 01:40:04,VALID,916.719,VALID,0,VALID,97.8999,VALID,0,VALID,18.9814,VALID,19,VALID,0.439063,
2011-11-05, 01:41:04,VALID,916.699,VALID,0,VALID,97.8999,VALID,0,VALID,19.0218,VALID,19,VALID,0.709375,
2011-11-05, 01:42:04,VALID,916.709,VALID,0.2,VALID,97.9228,VALID,0,VALID,19.0203,VALID,19,VALID,0.648047,
2011-11-05, 01:43:04,VALID,916.659,VALID,0,VALID,97.9075,VALID,0,VALID,19.0008,VALID,19,VALID,0.808594,
2011-11-05, 01:44:04,VALID,916.679,VALID,0,VALID,97.9152,VALID,0,VALID,19.0008,VALID,19,VALID,0.851953,
2011-11-05, 01:45:04,VALID,916.685,VALID,0,VALID,97.9152,VALID,0,VALID,19.0218,VALID,19,VALID,0.686719,
2011-11-05, 01:46:04,VALID,916.682,VALID,0,VALID,97.9228,VALID,0,VALID,19.0008,VALID,19,VALID,0.570313,
2011-11-05, 01:47:04,VALID,916.697,VALID,0.2,VALID,97.8999,VALID,0,VALID,19.0203,VALID,19,VALID,0.427734,
2011-11-05, 01:48:04,VALID,916.699,VALID,0,VALID,97.9228,VALID,0,VALID,19.0008,VALID,19,VALID,0,
2011-11-05, 01:49:04,VALID,916.699,VALID,0,VALID,97.9304,VALID,0,VALID,19.0218,VALID,19,VALID,0.751953,
2011-11-05, 01:50:04,VALID,916.701,VALID,0,VALID,97.9075,VALID,0,VALID,19.0218,VALID,19,VALID,0.150781,
2011-11-05, 01:51:04,VALID,916.703,VALID,0.2,VALID,97.9228,VALID,0,VALID,19.0008,VALID,19,VALID,0.181641,
2011-11-05, 01:52:04,VALID,916.62,VALID,0,VALID,97.9304,VALID,0,VALID,19.0218,VALID,19,VALID,0.667188,
2011-11-05, 01:53:04,VALID,916.647,VALID,0,VALID,97.9228,VALID,0,VALID,19.0218,VALID,19,VALID,0.850391,
2011-11-05, 01:54:04,VALID,916.623,VALID,0.2,VALID,97.9075,VALID,0,VALID,19.0203,VALID,18,VALID,0.45,
2011-11-05, 01:55:04,VALID,916.628,VALID,0,VALID,97.9304,VALID,0,VALID,19.0203,VALID,18,VALID,0.366406,
2011-11-05, 01:56:04,VALID,916.596,VALID,0,VALID,97.9304,VALID,0,VALID,19.0203,VALID,18,VALID,0.676172,
2011-11-05, 01:57:04,VALID,916.614,VALID,0.2,VALID,97.9456,VALID,0,VALID,19.0203,VALID,18,VALID,0.514453,
2011-11-05, 01:58:04,VALID,916.578,VALID,0,VALID,97.9152,VALID,0,VALID,19.0398,VALID,18,VALID,0.232812,
2011-11-05, 01:59:04,VALID,916.601,VALID,0,VALID,97.9228,VALID,0,VALID,19.0398,VALID,18,VALID,0.496484,
2011-11-05, 02:00:04,VALID,916.6,VALID,0,VALID,97.938,VALID,0,VALID,19.0608,VALID,18,VALID,0.162891,
2011-11-05, 02:01:04,VALID,916.593,VALID,0.2,VALID,97.9533,VALID,0,VALID,19.0398,VALID,18,VALID,0.699609,
2011-11-05, 02:02:04,VALID,916.572,VALID,0,VALID,97.9304,VALID,0,VALID,19.0398,VALID,18,VALID,0.801562,
2011-11-05, 02:03:04,VALID,916.553,VALID,0,VALID,97.9304,VALID,0,VALID,19.0398,VALID,18,VALID,0.695313,
2011-11-05, 02:04:04,VALID,916.551,VALID,0,VALID,97.9228,VALID,0,VALID,19.0398,VALID,18,VALID,0.547656,
2011-11-05, 02:05:04,VALID,916.542,VALID,0,VALID,97.938,VALID,0,VALID,19.0398,VALID,18,VALID,0.419922,
2011-11-05, 02:06:04,VALID,916.542,VALID,0,VALID,97.9304,VALID,0,VALID,19.0608,VALID,18,VALID,0.791016,
2011-11-05, 02:07:04,VALID,916.513,VALID,0,VALID,97.938,VALID,0,VALID,19.0398,VALID,18,VALID,0.449609,
2011-11-05, 02:08:04,VALID,916.509,VALID,0,VALID,97.9228,VALID,0,VALID,19.0593,VALID,18,VALID,0.523047,
2011-11-05, 02:09:04,VALID,916.529,VALID,0,VALID,97.9228,VALID,0.107441,VALID,19.0593,VALID,18,VALID,0.5375,
2011-11-05, 02:10:04,VALID,916.485,VALID,0,VALID,97.9533,VALID,0,VALID,19.0593,VALID,18,VALID,0.449609,
2011-11-05, 02:11:04,VALID,916.53,VALID,0,VALID,97.9152,VALID,0,VALID,19.0788,VALID,18,VALID,0.657812,
2011-11-05, 02:12:04,VALID,916.498,VALID,0.2,VALID,97.9304,VALID,0,VALID,19.0788,VALID,18,VALID,0.708203,
2011-11-05, 02:13:04,VALID,916.494,VALID,0,VALID,97.9304,VALID,0,VALID,19.0788,VALID,18,VALID,0.669141,
2011-11-05, 02:14:04,VALID,916.484,VALID,0,VALID,97.9304,VALID,0,VALID,19.0579,VALID,18,VALID,0.116797,
2011-11-05, 02:15:04,VALID,916.508,VALID,0,VALID,97.9228,VALID,0,VALID,19.0788,VALID,18,VALID,0.131641,
2011-11-05, 02:16:04,VALID,916.529,VALID,0,VALID,97.938,VALID,0,VALID,19.0788,VALID,18,VALID,0.0046875,
2011-11-05, 02:17:04,VALID,916.504,VALID,0,VALID,97.9228,VALID,0,VALID,19.0788,VALID,18,VALID,0.216797,
2011-11-05, 02:18:04,VALID,916.5,VALID,0,VALID,97.938,VALID,0,VALID,19.0788,VALID,18,VALID,0.175,
2011-11-05, 02:19:04,VALID,916.52,VALID,0.2,VALID,97.9304,VALID,0,VALID,19.0593,VALID,18,VALID,0.13125,
2011-11-05, 02:20:04,VALID,916.476,VALID,0,VALID,97.938,VALID,0,VALID,19.0788,VALID,18,VALID,0,
2011-11-05, 02:21:04,VALID,916.494,VALID,0.2,VALID,97.9304,VALID,0,VALID,19.0788,VALID,18,VALID,0.123047,
2011-11-05, 02:22:04,VALID,916.488,VALID,0,VALID,97.938,VALID,0,VALID,19.0983,VALID,18,VALID,0.26875,
2011-11-05, 02:23:04,VALID,916.495,VALID,0.2,VALID,97.938,VALID,0.107441,VALID,19.0983,VALID,18,VALID,0.557813,
2011-11-05, 02:24:04,VALID,916.526,VALID,0.2,VALID,97.9533,VALID,0,VALID,19.0788,VALID,18,VALID,0.233984,
2011-11-05, 02:25:04,VALID,916.514,VALID,0.2,VALID,97.9228,VALID,0,VALID,19.0983,VALID,18,VALID,0.116016,
2011-11-05, 02:26:04,VALID,916.477,VALID,0.2,VALID,97.9456,VALID,0,VALID,19.0788,VALID,18,VALID,0.0136719,
2011-11-05, 02:27:04,VALID,916.481,VALID,0.4,VALID,97.9456,VALID,0,VALID,19.0788,VALID,18,VALID,0.552344,
2011-11-05, 02:28:04,VALID,916.455,VALID,0.2,VALID,97.9456,VALID,0,VALID,19.0788,VALID,16,VALID,0.939844,
2011-11-05, 02:29:04,VALID,916.441,VALID,0.4,VALID,97.9533,VALID,0,VALID,19.0579,VALID,14,VALID,1.28984,
2011-11-05, 02:30:04,VALID,916.445,VALID,0.2,VALID,97.9533,VALID,0,VALID,19.0788,VALID,14,VALID,1.02227,
2011-11-05, 02:31:04,VALID,916.457,VALID,0,VALID,97.938,VALID,0,VALID,19.0788,VALID,14,VALID,0.830859,
2011-11-05, 02:32:04,VALID,916.469,VALID,0.2,VALID,97.9456,VALID,0,VALID,19.0593,VALID,14,VALID,1.60078,
2011-11-05, 02:33:04,VALID,916.48,VALID,0.4,VALID,97.9456,VALID,0.107441,VALID,19.0983,VALID,14,VALID,1.0957,
2011-11-05, 02:34:04,VALID,916.516,VALID,0,VALID,97.938,VALID,0,VALID,19.0579,VALID,13,VALID,1.5207,
2011-11-05, 02:35:04,VALID,916.516,VALID,0.2,VALID,97.9456,VALID,0,VALID,19.0788,VALID,13,VALID,1.07344,
2011-11-05, 02:36:04,VALID,916.514,VALID,0.2,VALID,97.9456,VALID,0,VALID,19.1193,VALID,13,VALID,0.105078,
2011-11-05, 02:37:04,VALID,916.519,VALID,0.2,VALID,97.9533,VALID,0,VALID,19.0788,VALID,13,VALID,1.13281,
2011-11-05, 02:38:04,VALID,916.495,VALID,0.4,VALID,97.9685,VALID,0,VALID,19.0593,VALID,13,VALID,1.65117,
2011-11-05, 02:39:04,VALID,916.495,VALID,0.2,VALID,97.9685,VALID,0.107441,VALID,19.0788,VALID,13,VALID,1.23359,
2011-11-05, 02:40:04,VALID,916.46,VALID,0.4,VALID,97.938,VALID,0,VALID,19.0579,VALID,13,VALID,0.471094,
2011-11-05, 02:41:04,VALID,916.394,VALID,0.4,VALID,97.9533,VALID,0,VALID,19.0788,VALID,13,VALID,0.0359375,
2011-11-05, 02:42:04,VALID,916.394,VALID,0.2,VALID,97.9304,VALID,0.107441,VALID,19.0788,VALID,13,VALID,0.0328125,
2011-11-05, 02:43:04,VALID,916.417,VALID,0.2,VALID,97.938,VALID,0,VALID,19.0593,VALID,13,VALID,0.980859,
2011-11-05, 02:44:04,VALID,916.432,VALID,0.2,VALID,97.9533,VALID,0,VALID,19.0398,VALID,13,VALID,0.684766,
2011-11-05, 02:45:04,VALID,916.458,VALID,0.4,VALID,97.9838,VALID,0,VALID,19.0608,VALID,62,VALID,0.404297,
2011-11-05, 02:46:04,VALID,916.497,VALID,0.2,VALID,97.9609,VALID,0,VALID,19.0203,VALID,62,VALID,0.814062,
2011-11-05, 02:47:04,VALID,916.521,VALID,0.2,VALID,97.9685,VALID,0,VALID,19.0593,VALID,62,VALID,0.420703,
2011-11-05, 02:48:04,VALID,916.544,VALID,0.4,VALID,97.9533,VALID,0,VALID,19.0398,VALID,62,VALID,0.204688,
2011-11-05, 02:49:04,VALID,916.558,VALID,0.4,VALID,97.9609,VALID,0,VALID,19.0788,VALID,62,VALID,0.00117188,
2011-11-05, 02:50:04,VALID,916.519,VALID,0.6,VALID,97.9685,VALID,0,VALID,19.0593,VALID,62,VALID,0.505469,
2011-11-05, 02:51:04,VALID,916.513,VALID,0.2,VALID,97.9609,VALID,0,VALID,19.0593,VALID,28,VALID,0.906641,
2011-11-05, 02:52:04,VALID,916.511,VALID,0.4,VALID,97.9685,VALID,0,VALID,19.0593,VALID,24,VALID,0.515234,
2011-11-05, 02:53:04,VALID,916.576,VALID,0.2,VALID,97.9609,VALID,0,VALID,19.0593,VALID,24,VALID,0,
2011-11-05, 02:54:04,VALID,916.622,VALID,0.4,VALID,97.9685,VALID,0,VALID,19.0593,VALID,24,VALID,0,
2011-11-05, 02:55:04,VALID,916.569,VALID,0.4,VALID,97.9533,VALID,0,VALID,19.0593,VALID,24,VALID,0.529297,
2011-11-05, 02:56:04,VALID,916.585,VALID,0.4,VALID,97.9685,VALID,0,VALID,19.0413,VALID,24,VALID,0.426172,
2011-11-05, 02:57:04,VALID,916.579,VALID,0.4,VALID,97.9609,VALID,0,VALID,19.0384,VALID,24,VALID,0.455469,
2011-11-05, 02:58:04,VALID,916.573,VALID,0.2,VALID,97.9456,VALID,0,VALID,19.0398,VALID,30,VALID,1.37461,
2011-11-05, 02:59:04,VALID,916.609,VALID,0.4,VALID,97.9761,VALID,0,VALID,19.0398,VALID,27,VALID,1.40586,
2011-11-05, 03:00:04,VALID,916.566,VALID,0.2,VALID,97.9838,VALID,0,VALID,19.0593,VALID,10,VALID,0.717188,
2011-11-05, 03:01:04,VALID,916.52,VALID,0.2,VALID,97.9609,VALID,0,VALID,19.0398,VALID,36,VALID,1.57734,
2011-11-05, 03:02:04,VALID,916.475,VALID,0,VALID,97.9685,VALID,0,VALID,19.0398,VALID,14,VALID,2.04609,
2011-11-05, 03:03:04,VALID,916.543,VALID,0.2,VALID,97.9761,VALID,0,VALID,19.0203,VALID,355,VALID,0.546094,
2011-11-05, 03:04:04,VALID,916.446,VALID,0,VALID,97.9609,VALID,0,VALID,19.0008,VALID,18,VALID,2.55469,
2011-11-05, 03:05:04,VALID,916.555,VALID,0,VALID,97.9838,VALID,0,VALID,19.0203,VALID,14,VALID,1.52148,
2011-11-05, 03:06:04,VALID,916.553,VALID,0.2,VALID,97.9609,VALID,0,VALID,19.0593,VALID,31,VALID,1.23633,
2011-11-05, 03:07:04,VALID,916.528,VALID,0,VALID,97.9533,VALID,0,VALID,19.0803,VALID,46,VALID,1.36836,
2011-11-05, 03:08:04,VALID,916.554,VALID,0.2,VALID,97.9533,VALID,0,VALID,19.0788,VALID,45,VALID,0.373828,
2011-11-05, 03:09:04,VALID,916.555,VALID,0,VALID,97.9533,VALID,0,VALID,19.0398,VALID,52,VALID,0.576563,
2011-11-05, 03:10:04,VALID,916.586,VALID,0.2,VALID,97.9533,VALID,0.107441,VALID,19.0593,VALID,22,VALID,1.9625,
2011-11-05, 03:11:04,VALID,916.569,VALID,0,VALID,97.938,VALID,0,VALID,19.0593,VALID,147,VALID,0.978906,
2011-11-05, 03:12:04,VALID,916.642,VALID,0.2,VALID,97.9533,VALID,0,VALID,19.0593,VALID,244,VALID,1.38789,
2011-11-05, 03:13:04,VALID,916.578,VALID,0.2,VALID,97.9609,VALID,0,VALID,19.0398,VALID,16,VALID,2.3832,
2011-11-05, 03:14:04,VALID,916.555,VALID,0.2,VALID,97.9456,VALID,0,VALID,19.0203,VALID,162,VALID,1.08633,
2011-11-05, 03:15:04,VALID,916.505,VALID,0.2,VALID,97.9685,VALID,0,VALID,19.0203,VALID,39,VALID,2.18828,
2011-11-05, 03:16:04,VALID,916.534,VALID,0.2,VALID,97.9609,VALID,0,VALID,19.0398,VALID,270,VALID,1.58633,
2011-11-05, 03:17:04,VALID,916.57,VALID,0,VALID,97.9456,VALID,0,VALID,19.0008,VALID,27,VALID,2.23555,
2011-11-05, 03:18:04,VALID,916.555,VALID,0.2,VALID,97.9533,VALID,0,VALID,18.9799,VALID,34,VALID,2.2,
2011-11-05, 03:19:04,VALID,916.515,VALID,0,VALID,97.9533,VALID,0,VALID,19.0008,VALID,3,VALID,1.13633,
2011-11-05, 03:20:04,VALID,916.448,VALID,0,VALID,97.938,VALID,0.107441,VALID,18.9604,VALID,37,VALID,2.4207,
2011-11-05, 03:21:04,VALID,916.51,VALID,0.2,VALID,97.9456,VALID,0,VALID,19.0008,VALID,44,VALID,0.889453,
2011-11-05, 03:22:04,VALID,916.564,VALID,0,VALID,97.9533,VALID,0,VALID,19.0008,VALID,175,VALID,0.825781,
2011-11-05, 03:23:04,VALID,916.564,VALID,0.2,VALID,97.9609,VALID,0,VALID,18.9814,VALID,175,VALID,0.661328,
2011-11-05, 03:24:04,VALID,916.517,VALID,0.2,VALID,97.9609,VALID,0,VALID,18.9619,VALID,92,VALID,1.84805,
2011-11-05, 03:25:04,VALID,916.53,VALID,0.2,VALID,97.9533,VALID,0,VALID,18.9619,VALID,94,VALID,0.791406,
2011-11-05, 03:26:04,VALID,916.653,VALID,0,VALID,97.9456,VALID,0,VALID,18.9828,VALID,219,VALID,0.750391,
2011-11-05, 03:27:04,VALID,916.613,VALID,0.2,VALID,97.9533,VALID,0,VALID,18.9814,VALID,64,VALID,2.92148,
2011-11-05, 03:28:04,VALID,916.601,VALID,0.2,VALID,97.9456,VALID,0,VALID,18.9814,VALID,37,VALID,2.51523,
2011-11-05, 03:29:04,VALID,916.642,VALID,0.2,VALID,97.9761,VALID,0,VALID,18.9619,VALID,21,VALID,2.40742,
2011-11-05, 03:30:04,VALID,916.625,VALID,0.2,VALID,97.9609,VALID,0,VALID,18.9619,VALID,2,VALID,1.0043,
2011-11-05, 03:31:04,VALID,916.65,VALID,0.2,VALID,97.9533,VALID,0,VALID,18.9619,VALID,26,VALID,1.69023,
2011-11-05, 03:32:04,VALID,916.586,VALID,0,VALID,97.9685,VALID,0,VALID,18.9619,VALID,38,VALID,3.56875,
2011-11-05, 03:33:04,VALID,916.609,VALID,0.2,VALID,97.9685,VALID,0,VALID,18.9619,VALID,26,VALID,2.41016,
2011-11-05, 03:34:04,VALID,916.648,VALID,0.2,VALID,97.9533,VALID,0,VALID,18.9619,VALID,339,VALID,1.14922,
2011-11-05, 03:35:04,VALID,916.59,VALID,0,VALID,97.9761,VALID,0,VALID,18.9424,VALID,359,VALID,2.3082,
2011-11-05, 03:36:04,VALID,916.618,VALID,0.2,VALID,97.9685,VALID,0,VALID,18.9229,VALID,39,VALID,2.29336,
2011-11-05, 03:37:04,VALID,916.684,VALID,0,VALID,97.9838,VALID,0,VALID,18.9424,VALID,24,VALID,1.35898,
2011-11-05, 03:38:04,VALID,916.71,VALID,0.2,VALID,97.9685,VALID,0,VALID,18.9424,VALID,34,VALID,1.84922,
2011-11-05, 03:39:04,VALID,916.673,VALID,0.2,VALID,97.938,VALID,0,VALID,18.9229,VALID,98,VALID,1.22617,
2011-11-05, 03:40:04,VALID,916.678,VALID,0.2,VALID,97.9685,VALID,0,VALID,18.9229,VALID,22,VALID,1.64023,
2011-11-05, 03:41:04,VALID,916.747,VALID,0.2,VALID,97.9761,VALID,0,VALID,18.9034,VALID,31,VALID,2.49922,
2011-11-05, 03:42:04,VALID,916.649,VALID,0.2,VALID,97.9456,VALID,0,VALID,18.9034,VALID,25,VALID,2.72031,
2011-11-05, 03:43:04,VALID,916.799,VALID,0.2,VALID,97.9609,VALID,0,VALID,18.8449,VALID,350,VALID,1.28984,
2011-11-05, 03:44:04,VALID,916.77,VALID,0.2,VALID,97.9609,VALID,0,VALID,18.8644,VALID,56,VALID,1.70508,
2011-11-05, 03:45:04,VALID,916.787,VALID,0.2,VALID,97.9609,VALID,0,VALID,18.8644,VALID,35,VALID,2.59961,